| time (UTC) | temp C | wind direction | speed KPH | gust KPH | rain 1hr cm | rain 24hr cm | rain mn cm | humidity % | barometer mb |
| 20260505230338 | 13 | 20 | 4.8 | 9.7 | 0.00 | 0.03 | 0.00 | 74 | 1012.0 |
| 20260505225337 | 13 | 5 | 4.8 | 6.4 | 0.00 | 0.03 | 0.00 | 75 | 1012.1 |
| 20260505224357 | 13 | 54 | 0.0 | 6.4 | 0.00 | 0.03 | 0.00 | 75 | 1012.2 |
| 20260505223356 | 13 | 56 | 1.6 | 4.8 | 0.00 | 0.03 | 0.00 | 75 | 1012.1 |
| 20260505222357 | 13 | 58 | 0.0 | 3.2 | 0.00 | 0.03 | 0.00 | 75 | 1012.4 |
| 20260505221338 | 14 | 59 | 0.0 | 6.4 | 0.00 | 0.03 | 0.00 | 75 | 1012.5 |
| 20260505220343 | 14 | 79 | 4.8 | 8.0 | 0.00 | 0.03 | 0.00 | 76 | 1012.6 |
| 20260505215343 | 14 | 329 | 3.2 | 6.4 | 0.00 | 0.03 | 0.00 | 75 | 1012.8 |
| 20260505214348 | 14 | 319 | 3.2 | 6.4 | 0.00 | 0.03 | 0.00 | 74 | 1012.8 |
| 20260505212357 | 14 | 294 | 1.6 | 6.4 | 0.00 | 0.03 | 0.00 | 74 | 1012.8 |
| 20260505211338 | 14 | 199 | 0.0 | 0.0 | 0.00 | 0.03 | 0.00 | 74 | 1012.5 |
| 20260505210341 | 14 | 199 | 0.0 | 0.0 | 0.00 | 0.03 | 0.00 | 74 | 1012.3 |
| 20260505205357 | 14 | 199 | 1.6 | 4.8 | 0.00 | 0.03 | 0.00 | 75 | 1012.3 |
| 20260505204336 | 14 | 262 | 0.0 | 1.6 | 0.00 | 0.10 | 0.00 | 75 | 1012.1 |
| 20260505203343 | 14 | 262 | 0.0 | 6.4 | 0.00 | 0.10 | 0.00 | 75 | 1012.1 |
| 20260505202340 | 14 | 264 | 6.4 | 8.0 | 0.00 | 0.10 | 0.00 | 74 | 1012.1 |
| 20260505201346 | 14 | 254 | 6.4 | 8.0 | 0.00 | 0.10 | 0.00 | 73 | 1012.0 |
| 20260505200340 | 14 | 78 | 0.0 | 0.0 | 0.00 | 0.10 | 0.00 | 73 | 1011.5 |
| 20260505195342 | 14 | 78 | 0.0 | 0.0 | 0.00 | 0.10 | 0.00 | 74 | 1011.4 |
| 20260505194348 | 14 | 78 | 0.0 | 6.4 | 0.00 | 0.10 | 0.00 | 75 | 1011.4 |
| 20260505193337 | 14 | 73 | 0.0 | 8.0 | 0.00 | 0.10 | 0.00 | 76 | 1011.4 |
| 20260505192356 | 14 | 34 | 0.0 | 6.4 | 0.00 | 0.10 | 0.00 | 76 | 1011.3 |
| 20260505191358 | 14 | 66 | 1.6 | 9.7 | 0.00 | 0.10 | 0.00 | 75 | 1011.4 |
| 20260505190342 | 15 | 15 | 6.4 | 12.9 | 0.00 | 0.10 | 0.00 | 74 | 1011.4 |
| 20260505185344 | 15 | 344 | 6.4 | 11.3 | 0.00 | 0.10 | 0.00 | 72 | 1011.3 |
| 20260505184350 | 15 | 12 | 8.0 | 11.3 | 0.00 | 0.10 | 0.00 | 70 | 1011.2 |
| 20260505183336 | 15 | 356 | 6.4 | 12.9 | 0.00 | 0.10 | 0.00 | 70 | 1010.9 |
| 20260505182357 | 15 | 353 | 8.0 | 14.5 | 0.00 | 0.10 | 0.00 | 67 | 1011.1 |
| 20260505181338 | 15 | 336 | 8.0 | 9.7 | 0.00 | 0.10 | 0.00 | 61 | 1011.3 |
| 20260505180344 | 15 | 74 | 4.8 | 11.3 | 0.00 | 0.10 | 0.00 | 63 | 1011.0 |
| 20260505175357 | 15 | 59 | 8.0 | 14.5 | 0.00 | 0.10 | 0.00 | 61 | 1011.2 |
| 20260505174337 | 15 | 355 | 4.8 | 8.0 | 0.00 | 0.10 | 0.00 | 59 | 1011.4 |
| 20260505173342 | 15 | 342 | 1.6 | 6.4 | 0.00 | 0.10 | 0.00 | 58 | 1011.3 |
| 20260505172340 | 15 | 341 | 6.4 | 9.7 | 0.00 | 0.10 | 0.00 | 58 | 1011.6 |
| 20260505171346 | 16 | 339 | 4.8 | 17.7 | 0.00 | 0.10 | 0.00 | 56 | 1011.7 |
| 20260505170336 | 16 | 303 | 6.4 | 9.7 | 0.00 | 0.10 | 0.00 | 53 | 1011.8 |
| 20260505165357 | 16 | 10 | 6.4 | 9.7 | 0.00 | 0.10 | 0.00 | 54 | 1011.7 |
| 20260505164357 | 16 | 0 | 4.8 | 11.3 | 0.00 | 0.10 | 0.00 | 54 | 1011.5 |
| 20260505163336 | 16 | 348 | 6.4 | 27.4 | 0.00 | 0.10 | 0.00 | 54 | 1011.6 |
| 20260505162335 | 18 | 319 | 12.9 | 20.9 | 0.00 | 0.10 | 0.00 | 62 | 1011.7 |
| 20260505161337 | 18 | 219 | 1.6 | 12.9 | 0.00 | 0.10 | 0.00 | 63 | 1011.4 |
| 20260505160340 | 18 | 262 | 6.4 | 19.3 | 0.00 | 0.10 | 0.00 | 62 | 1011.0 |
| 20260505153338 | 18 | 136 | 8.0 | 24.1 | 0.00 | 0.13 | 0.00 | 57 | 1010.7 |
| 20260505152338 | 18 | 114 | 12.9 | 24.1 | 0.00 | 0.13 | 0.00 | 56 | 1010.8 |
| 20260505151343 | 18 | 127 | 12.9 | 24.1 | 0.00 | 0.13 | 0.00 | 54 | 1010.7 |
| 20260505150349 | 18 | 143 | 11.3 | 27.4 | 0.00 | 0.13 | 0.00 | 53 | 1010.5 |
| 20260505140356 | 18 | 121 | 8.0 | 24.1 | 0.00 | 0.13 | 0.00 | 63 | 1011.0 |
| 20260505124355 | 20 | 193 | 4.8 | 22.5 | 0.00 | 0.13 | 0.00 | 51 | 1011.4 |
| 20260505123341 | 20 | 113 | 4.8 | 19.3 | 0.00 | 0.13 | 0.00 | 50 | 1011.4 |
| 20260505122356 | 20 | 156 | 9.7 | 20.9 | 0.00 | 0.13 | 0.00 | 49 | 1011.7 |
| 20260505121343 | 20 | 54 | 0.0 | 6.4 | 0.00 | 0.13 | 0.00 | 54 | 1011.7 |
| 20260505120341 | 20 | 60 | 1.6 | 6.4 | 0.00 | 0.13 | 0.00 | 55 | 1011.9 |
| 20260505115357 | 20 | 351 | 3.2 | 9.7 | 0.00 | 0.13 | 0.00 | 56 | 1012.0 |
| 20260505114340 | 20 | 57 | 1.6 | 8.0 | 0.00 | 0.15 | 0.00 | 56 | 1011.9 |
| 20260505113349 | 19 | 146 | 3.2 | 4.8 | 0.00 | 0.15 | 0.00 | 56 | 1012.1 |
| 20260505112350 | 18 | 152 | 1.6 | 9.7 | 0.00 | 0.15 | 0.00 | 59 | 1012.3 |
| 20260505111338 | 18 | 106 | 4.8 | 8.0 | 0.00 | 0.15 | 0.00 | 61 | 1012.5 |
| 20260505110336 | 17 | 122 | 0.0 | 8.0 | 0.00 | 0.15 | 0.00 | 63 | 1012.5 |
| 20260505101335 | 17 | 244 | 3.2 | 12.9 | 0.00 | 0.15 | 0.00 | 61 | 1012.7 |
| 20260505100339 | 17 | 213 | 4.8 | 11.3 | 0.00 | 0.15 | 0.00 | 61 | 1012.7 |
| 20260505095338 | 17 | 28 | 0.0 | 4.8 | 0.00 | 0.15 | 0.00 | 64 | 1012.6 |
| 20260505094356 | 17 | 56 | 0.0 | 4.8 | 0.00 | 0.15 | 0.00 | 69 | 1012.6 |
| 20260505093342 | 16 | 56 | 3.2 | 11.3 | 0.00 | 0.15 | 0.00 | 71 | 1012.5 |
| 20260505092345 | 16 | 120 | 4.8 | 9.7 | 0.00 | 0.15 | 0.00 | 73 | 1012.2 |
| 20260505091351 | 16 | 15 | 6.4 | 9.7 | 0.00 | 0.15 | 0.00 | 74 | 1012.1 |
| 20260505090337 | 16 | 255 | 4.8 | 9.7 | 0.00 | 0.15 | 0.00 | 73 | 1013.0 |
| 20260505085338 | 16 | 254 | 4.8 | 9.7 | 0.00 | 0.15 | 0.00 | 71 | 1013.0 |
| 20260505084337 | 16 | 269 | 4.8 | 9.7 | 0.00 | 0.15 | 0.00 | 69 | 1012.9 |
| 20260505083338 | 16 | 231 | 4.8 | 8.0 | 0.00 | 0.15 | 0.00 | 68 | 1012.8 |
| 20260505082338 | 16 | 79 | 0.0 | 0.0 | 0.00 | 0.15 | 0.00 | 70 | 1012.5 |
| 20260505081336 | 16 | 80 | 0.0 | 6.4 | 0.00 | 0.15 | 0.00 | 74 | 1012.5 |
| 20260505080355 | 15 | 90 | 3.2 | 9.7 | 0.00 | 0.15 | 0.00 | 76 | 1012.5 |
| 20260505075353 | 15 | 233 | 0.0 | 6.4 | 0.00 | 0.15 | 0.00 | 82 | 1012.5 |
| 20260505074336 | 13 | 218 | 0.0 | 4.8 | 0.00 | 0.15 | 0.00 | 84 | 1012.6 |
| 20260505073337 | 13 | 215 | 3.2 | 6.4 | 0.00 | 0.15 | 0.00 | 85 | 1012.9 |
| 20260505072354 | 13 | 209 | 3.2 | 4.8 | 0.00 | 0.15 | 0.00 | 89 | 1012.9 |
| 20260505071342 | 13 | 205 | 1.6 | 4.8 | 0.00 | 0.15 | 0.00 | 90 | 1012.8 |
| 20260505070347 | 13 | 202 | 0.0 | 4.8 | 0.00 | 0.15 | 0.00 | 92 | 1013.0 |
| 20260505065349 | 13 | 203 | 0.0 | 4.8 | 0.00 | 0.15 | 0.00 | 94 | 1012.9 |
| 20260505064355 | 13 | 217 | 1.6 | 3.2 | 0.00 | 0.15 | 0.00 | 95 | 1012.9 |
| 20260505063355 | 12 | 214 | 0.0 | 1.6 | 0.00 | 0.15 | 0.00 | 95 | 1012.8 |
| 20260505062355 | 12 | 214 | 0.0 | 3.2 | 0.00 | 0.15 | 0.00 | 95 | 1012.9 |
| 20260505061355 | 12 | 214 | 0.0 | 1.6 | 0.00 | 0.15 | 0.00 | 95 | 1012.9 |
| 20260505060340 | 11 | 214 | 0.0 | 0.0 | 0.00 | 0.15 | 0.00 | 95 | 1013.0 |
| 20260505055341 | 11 | 214 | 0.0 | 3.2 | 0.00 | 0.15 | 0.00 | 95 | 1013.0 |
| 20260505054345 | 12 | 214 | 1.6 | 3.2 | 0.00 | 0.15 | 0.00 | 96 | 1013.0 |
| 20260505053353 | 11 | 214 | 0.0 | 3.2 | 0.00 | 0.15 | 0.00 | 96 | 1012.8 |
| 20260505052352 | 11 | 214 | 0.0 | 4.8 | 0.00 | 0.15 | 0.00 | 96 | 1012.8 |
| 20260505051338 | 11 | 218 | 1.6 | 3.2 | 0.00 | 0.15 | 0.00 | 95 | 1012.9 |
| 20260505050344 | 11 | 218 | 1.6 | 3.2 | 0.00 | 0.15 | 0.00 | 95 | 1012.8 |
| 20260505041407 | 11 | 206 | 0.0 | 0.0 | 0.00 | 0.15 | 0.00 | 94 | 1013.0 |
| 20260505040402 | 11 | 206 | 0.0 | 0.0 | 0.00 | 0.15 | 0.00 | 94 | 1012.9 |
| 20260505035409 | 11 | 206 | 0.0 | 3.2 | 0.00 | 0.15 | 0.00 | 95 | 1013.0 |
| 20260505034401 | 11 | 206 | 1.6 | 4.8 | 0.00 | 0.15 | 0.00 | 94 | 1012.9 |
| 20260505033354 | 11 | 206 | 0.0 | 4.8 | 0.00 | 0.15 | 0.00 | 94 | 1012.8 |
| 20260505032403 | 11 | 206 | 1.6 | 4.8 | 0.00 | 0.15 | 0.00 | 94 | 1012.9 |
| 20260505031416 | 11 | 206 | 0.0 | 0.0 | 0.00 | 0.15 | 0.00 | 94 | 1012.9 |
| 20260505030409 | 11 | 206 | 3.2 | 4.8 | 0.00 | 0.15 | 0.00 | 94 | 1012.9 |
| 20260505025402 | 12 | 206 | 0.0 | 0.0 | 0.00 | 0.15 | 0.00 | 94 | 1012.9 |
| 20260505024359 | 12 | 206 | 0.0 | 0.0 | 0.00 | 0.15 | 0.00 | 94 | 1013.0 |
| 20260505023355 | 12 | 206 | 0.0 | 1.6 | 0.00 | 0.15 | 0.00 | 94 | 1013.0 |
| 20260505022408 | 12 | 206 | 1.6 | 6.4 | 0.00 | 0.15 | 0.00 | 93 | 1012.9 |
| 20260505021404 | 12 | 206 | 0.0 | 0.0 | 0.00 | 0.15 | 0.00 | 92 | 1012.9 |
| 20260505020357 | 12 | 206 | 0.0 | 1.6 | 0.00 | 0.15 | 0.00 | 93 | 1012.8 |
| 20260505015406 | 12 | 206 | 0.0 | 0.0 | 0.00 | 0.15 | 0.00 | 92 | 1012.8 |
| 20260505013403 | 12 | 206 | 1.6 | 3.2 | 0.00 | 0.15 | 0.00 | 93 | 1012.8 |
| 20260505012406 | 12 | 206 | 0.0 | 1.6 | 0.00 | 0.15 | 0.00 | 93 | 1012.9 |
| 20260505011404 | 12 | 206 | 1.6 | 6.4 | 0.00 | 0.15 | 0.00 | 93 | 1012.9 |
| 20260505010356 | 12 | 206 | 0.0 | 3.2 | 0.00 | 0.15 | 0.00 | 93 | 1013.0 |
| 20260505005400 | 12 | 206 | 1.6 | 8.0 | 0.03 | 0.15 | 0.00 | 93 | 1013.0 |
| 20260505003401 | 13 | 207 | 1.6 | 6.4 | 0.03 | 0.15 | 0.00 | 93 | 1012.9 |
| 20260505002358 | 13 | 208 | 0.0 | 8.0 | 0.03 | 0.15 | 0.00 | 93 | 1013.1 |
| 20260505001402 | 13 | 209 | 1.6 | 6.4 | 0.03 | 0.15 | 0.00 | 94 | 1013.1 |
| 20260505000413 | 13 | 209 | 1.6 | 3.2 | 0.03 | 0.15 | 0.00 | 93 | 1013.1 |
| 20260504235357 | 13 | 208 | 0.0 | 4.8 | 0.00 | 0.15 | 0.00 | 93 | 1013.1 |
| 20260504234405 | 13 | 209 | 1.6 | 8.0 | 0.00 | 0.15 | 0.00 | 93 | 1012.9 |
| 20260504233401 | 13 | 210 | 1.6 | 6.4 | 0.00 | 0.15 | 0.00 | 93 | 1013.0 |
| 20260504232354 | 13 | 209 | 3.2 | 4.8 | 0.00 | 0.15 | 0.00 | 92 | 1013.0 |
| 20260504231406 | 13 | 209 | 3.2 | 6.4 | 0.00 | 0.15 | 0.00 | 92 | 1013.0 |